Location: Erdweis
(48.5167°N, 15.3500°E)
Time: 10:37:22
(UTC+00:00)

ATLAS 3B R/B - Pass Details

Date: 18 September 2020
Orbit: 1016 x 1179 km, 63.8° (Epoch: 04 October)

Event Time Altitude Azimuth Distance (km) Brightness Sun altitude
Rises 21:22:39 0° 317° (NW) 3,839 6.5 -36.4°
Reaches altitude 10° 21:25:19 10° 313° (NW) 2,902 5.6 -36.6°
Enters shadow 21:30:03 41° 283° (WNW) 1,529 3.6 -37.0°
